Location: Winnipeg
(49.8830°N, 97.1670°W)
Time: 20:29:32
(UTC-06:00)

Envisat - Pass Details

Date: 04 December 2022
Orbit: 763 x 765 km, 98.2° (Epoch: 28 January)

Event Time Altitude Azimuth Distance (km) Brightness Sun altitude
Rises 17:22:27 0° 220° (SW) 3,222 7.6 -8.3°
Reaches altitude 10° 17:26:12 10° 249° (WSW) 2,303 7.2 -8.9°
Maximum altitude 17:28:23 13° 275° (W) 2,125 6.3 -9.2°
Drops below altitude 10° 17:30:34 10° 301° (WNW) 2,311 6.0 -9.5°
Sets 17:34:21 0° 329° (NNW) 3,245 6.4 -10.1°
